Regional Weather Roundup
Issued by NWS

Home | Current Version | Previous Version | Text Only | Print | Product List | Glossary Off
Versions: 1 2 3 4 5 6 7 8 9 10 11 12 13 14 15 16 17 18 19 20 21 22 23 24 25 26 27 28 29 30 31 32 33 34 35 36 37 38 39 40 41 42 43 44 45 46 47 48 49 50

000
ASUS43 KLOT 200210
RWRIL

ILLINOIS REGIONAL WEATHER ROUNDUP
NATIONAL WEATHER SERVICE CHICAGO/ROMEOVILLE IL
800 PM CST FRI DEC 19 2014

NOTE: "FAIR" INDICATES FEW OR NO CLOUDS BELOW 12,000 FEET WITH NO
SIGNIFICANT WEATHER AND/OR OBSTRUCTIONS TO VISIBILITY.

* THESE STATIONS ARE NOT UNDER NWS QUALITY CONTROL. THEY ALSO MAY NOT
  REPORT WEATHER SUCH AS PRECIPITATION OR FOG.

ILZ001-002-007-009-015-016-024-200300-
NORTHWEST ILLINOIS

CITY           SKY/WX    TMP DP  RH WIND       PRES   REMARKS
MOLINE         CLOUDY    28  22  78 E8        30.27S WCI  20
STERLING*      CLOUDY    28  25  86 E5        30.28S WCI  23
SAVANNA*       MOCLDY    27  23  83 SE3       30.27F
$$

ILZ003-004-008-010-011-017-018-200300-
NORTH CENTRAL ILLINOIS

CITY           SKY/WX    TMP DP  RH WIND       PRES   REMARKS
ROCKFORD       CLOUDY    28  22  78 E6        30.29F WCI  22
FREEPORT*      CLOUDY    25  22  89 CALM      30.28S
ROCHELLE*      PTCLDY    22  20  93 CALM      30.28S
DE KALB*       PTCLDY    22  20  93 E3        30.27S
PERU*          CLOUDY    31  25  79 NE6       30.29S WCI  25
$$

ILZ005-006-012>014-019>023-200300-
NORTHEAST ILLINOIS

CITY           SKY/WX    TMP DP  RH WIND       PRES   REMARKS
CHICAGO-OHARE  CLOUDY    30  21  69 N6        30.27S WCI  24
CHICAGO-MIDWAY CLOUDY    34  24  67 SW6       30.28S WCI  29
AURORA         PTCLDY    28  22  78 N3        30.28S
LANSING*       CLOUDY    31  26  80 CALM      30.28F
JOLIET*        CLOUDY    31  25  80 CALM      30.29S
WAUKEGAN       CLOUDY    28  20  71 NW3       30.27F
DUPAGE AIRPORT CLOUDY    29  23  78 N5        30.27S WCI  24
KANKAKEE*      CLOUDY    31  27  88 SE3       30.30S
WHEELING       CLOUDY    29  21  72 N5        30.29F WCI  24
MORRIS*        CLOUDY    29  26  85 CALM      30.28S
ROMEOVILLE*    CLOUDY    31  26  81 S5        30.28S WCI  26
NORTHERLY ISL    N/A     33  22  64 S1          N/A
$$

LMZ740>746-200300-
SOUTHERN LAKE MICHIGAN

STATION/POSITION SKY/WX   TEMP    WIND        PRES    VSBY  WAVE
                          AIR SEA DIR/SP/G                  HT/PER
                          (F)     (DEG/KT/KT) (MB)    (MI)  (FT/S)
WAUKEGAN HARBOR            29     340/  4/  7   N/A
HARRISON CRIB              32     150/  3/  5   N/A
BURNHAM HARBOR             32     180/  4/  4   N/A
CALUMET HARBOR             32     130/  2/  3 1024.0S
$$

ILZ025>027-034>036-040-047-049-050-058-095>099-200300-
WEST-CENTRAL ILLINOIS

CITY           SKY/WX    TMP DP  RH WIND       PRES   REMARKS
QUINCY         CLOUDY    32  26  78 E7        30.24F WCI  26
GALESBURG*     CLOUDY    29  24  80 E5        30.25F WCI  24
MACOMB*        CLOUDY    30  27  86 SE5       30.28F WCI  25
JACKSONVILLE*  CLOUDY    33  28  83 E5        30.26F WCI  29
PITTSFIELD*    CLOUDY    33  29  86 E3        30.27S
$$

ILZ028>032-037-038-041>044-048-051>054-059>061-200300-
CENTRAL ILLINOIS

CITY           SKY/WX    TMP DP  RH WIND       PRES   REMARKS
PONTIAC        MOCLDY    26  25  94 SE3       30.29F
BLOOMINGTON    CLOUDY    27  25  92 CALM      30.27F
DECATUR        CLOUDY    29  24  82 NE5       30.27F WCI  24
PEORIA         CLOUDY    30  21  69 E5        30.28F WCI  25
LACON*         CLOUDY    29  23  76 CALM      30.28S
LINCOLN*       CLOUDY    30  27  87 CALM      30.28F
SPRINGFIELD    CLOUDY    32  24  72 E6        30.27F WCI  26
TAYLORVILLE    CLOUDY    30  25  80 E5        30.27S WCI  25
$$

ILZ033-039-045-046-055>057-062-063-200300-
EAST-CENTRAL ILLINOIS

CITY           SKY/WX    TMP DP  RH WIND       PRES   REMARKS
CHAMPAIGN      CLOUDY    27  23  85 E5        30.27F WCI  22
DANVILLE*      CLOUDY    29  27  90 CALM      30.25F
RANTOUL*       CLOUDY    30  27  90 CALM      30.28S
MATTOON        CLOUDY    29  24  82 E5        30.26F WCI  24
PARIS*         CLOUDY    31  28  88 CALM      30.29F
$$

ILZ079-100>102-200300-
SOUTHWEST ILLINOIS

CITY           SKY/WX    TMP DP  RH WIND       PRES   REMARKS
BELLEVILLE     CLOUDY    35  29  81 E2        30.26F
CAHOKIA*       CLOUDY    36  29  75 E3        30.27S
SPARTA*        CLOUDY    34  29  82 E6        30.27F WCI  29
$$

ILZ064>066-069>071-074>076-080>082-084>086-088>090-092>094-200300-
SOUTH-CENTRAL ILLINOIS

CITY           SKY/WX    TMP DP  RH WIND       PRES   REMARKS
CARBONDALE     CLOUDY    35  27  72 NE5       30.26F WCI  31
CAIRO*         CLOUDY    39  32  75 NE8       30.25S WCI  34
EFFINGHAM*     CLOUDY    32  23  71 CALM      30.28F
MARION         CLOUDY    36  27  69 E5        30.26F WCI  32
MT. VERNON     CLOUDY    34  23  64 E5        30.27F WCI  30
CENTRALIA*     CLOUDY    33  26  72 E3        30.27R
SALEM*         CLOUDY    35  26  71 E3        30.27S
METROPOLIS*    CLOUDY    37  30  77 NE3       30.24F
$$

ILZ067-068-072-073-078-083-087-091-200300-
SOUTHEAST ILLINOIS

CITY           SKY/WX    TMP DP  RH WIND       PRES   REMARKS
LAWRENCEVILLE  CLOUDY    30  26  85 N3        30.28F
FLORA*         CLOUDY    32  26  77 NE3       30.28F
FAIRFIELD*     CLOUDY    33  26  75 CALM      30.27S
HARRISBURG*    CLOUDY    34  28  78 E5        30.27F WCI  30
ROBINSON*      CLOUDY    30  26  85 E5        30.30S WCI  26
CARMI*         CLOUDY    34  30  86 CALM      30.28S
$$

ABBREVIATIONS USED IN REMARKS
   TC - TEMPERATURE IN CELSIUS
  WCI - WIND CHILL INDEX
   HX - HEAT INDEX
  VSB - VISIBILITY
$$



USA.gov is the U.S. government's official web portal to all federal, state and local government web resources and services.